Location: *
(41.7492°S, 135.4150°W)
Time: 21:59:42
(UTC+00:00)

METEOR M2 - Pass Details

Date: 08 July 2022
Orbit: 818 x 827 km, 98.4° (Epoch: 17 August)

Event Time Altitude Azimuth Distance (km) Brightness Sun altitude
Exits shadow 03:51:25 47° 132° (SE) 1,087 ? -22.8°
Maximum altitude 03:52:44 62° 79° (E) 933 ? -23.1°
Drops below altitude 10° 03:58:03 10° 358° (N) 2,424 ? -24.1°
Sets 04:00:25 0° 354° (N) 3,350 ? -24.5°
